Monte Cimone, Italy

8:34 AM CET on February 08, 2016 (GMT +0100)
Monte Cimone

Weather History for LIVC - November, 2012

Change the Weather History Date:

Tuesday, November 13, 2012

  Actual Average Record
Temperature  
Mean Temperature 42 °F -  
Max Temperature 46 °F 33 °F 59 °F (2015)
Min Temperature 39 °F 25 °F 19 °F (1998)
Degree Days  
Heating Degree Days 22    
Moisture  
Dew Point 41 °F    
Average Humidity 92    
Maximum Humidity 100    
Minimum Humidity 81    
Precipitation  
Precipitation 0.00 in 0.09 in - ()
Sea Level Pressure  
Sea Level Pressure 30.34 in    
Wind  
Wind Speed 8 mph ()    
Max Wind Speed 14 mph    
Max Gust Speed -    
Visibility 1.9 miles    
Events Fog    
Averages and records for this station are not official NWS values.
T = Trace of Precipitation, MM = Missing Value Source: Averaged Metar Reports

Daily Weather History Graph

Daily Weather History Graph

Search for Another Location

Airport or City:

Trip Planner

Search our weather history database for the weather conditions in past years. The results will help you decide how hot, cold, wet, or windy it might be!

Date:

Astronomy

Nov. 13, 2012 Rise Set
Actual Time 7:10 AM CET 4:52 PM CET
Civil Twilight 6:39 AM CET 5:23 PM CET
Nautical Twilight 6:04 AM CET 5:58 PM CET
Astronomical Twilight 5:30 AM CET 6:32 PM CET
Moon 6:28 AM CET (11/13) 4:30 PM CET (11/13)
Length of Visible Light 10h 44m
Length of Day
9h 41m
Waning Crescent, 0% of the Moon is Illuminated
Nov 13
Waning Crescent
Nov 13
New
Nov 20
First Quarter
Nov 28
Full
Dec 6
Last Quarter

Hourly Weather History & Observations

Time (CET) Temp. Windchill Dew Point Humidity Pressure Visibility Wind Dir Wind Speed Gust Speed Precip Events Conditions
12:55 AM 41.0 °F 33.9 °F 39.2 °F 93% 30.30 in 6.2 mi SW 12.7 mph - N/A   Partly Cloudy
1:00 AM 41 °F - 38 °F 86%  in 7 mi SW 12.7 mph - -   Scattered Clouds
1:55 AM 41.0 °F 33.9 °F 37.4 °F 87% 30.30 in 0.1 mi SW 12.7 mph - N/A Fog Fog
2:55 AM 41.0 °F 34.3 °F 37.4 °F 87% 30.30 in 0.1 mi SW 11.5 mph - N/A Fog Fog
3:55 AM 41.0 °F 34.3 °F 37.4 °F 87% 30.30 in - SW 11.5 mph - N/A   Clear
4:55 AM 41.0 °F 34.3 °F 37.4 °F 87% 30.30 in - SW 11.5 mph - N/A   Clear
5:55 AM 42.8 °F 36.2 °F 37.4 °F 81% 30.30 in - SW 12.7 mph - N/A   Clear
6:55 AM 41.0 °F 33.5 °F 39.2 °F 93% 30.30 in - SW 13.8 mph - N/A   Clear
7:00 AM 42 °F - 38 °F 83%  in 12 mi SW 13.8 mph - -   Partly Cloudy
7:55 AM 42.8 °F 36.2 °F 39.2 °F 87% 30.33 in - SW 12.7 mph - N/A   Clear
8:55 AM 42.8 °F 36.6 °F 39.2 °F 87% 30.36 in 6.2 mi SW 11.5 mph - N/A   Partly Cloudy
9:55 AM 44.6 °F - 41.0 °F 87% 30.36 in - Calm Calm - N/A   Clear
10:55 AM 44.6 °F - 42.8 °F 93% 30.36 in 6.2 mi Calm Calm - N/A   Scattered Clouds
12:55 PM 46.4 °F - 44.6 °F 93% 30.36 in 0.0 mi Calm Calm - N/A Fog Fog
1:00 PM 46 °F - 44 °F 89%  in 0 mi Calm Calm - - Fog Heavy Fog
1:55 PM 46.4 °F - 46.4 °F 100% 30.36 in 0.0 mi Calm Calm - N/A Fog Fog
2:55 PM 46.4 °F - 44.6 °F 93% 30.36 in 0.0 mi Calm Calm - N/A Fog Fog
3:55 PM 46.4 °F - 46.4 °F 100% 30.36 in 0.0 mi Calm Calm - N/A Fog Fog
4:55 PM 46.4 °F - 44.6 °F 93% 30.36 in 0.0 mi Calm Calm - N/A Fog Fog
5:55 PM 44.6 °F 41.4 °F 44.6 °F 100% 30.36 in 0.0 mi WSW 5.8 mph - N/A Fog Fog
6:55 PM 44.6 °F 41.4 °F 42.8 °F 93% 30.36 in 0.0 mi WSW 5.8 mph - N/A Fog Fog
7:55 PM 44.6 °F 42.2 °F 42.8 °F 93% 30.39 in 0.3 mi WSW 4.6 mph - N/A Fog Fog
8:55 PM 41.0 °F 37.1 °F 41.0 °F 100% 30.36 in 0.1 mi WSW 5.8 mph - N/A Fog Fog
9:55 PM 41.0 °F 36.4 °F 41.0 °F 100% 30.36 in 0.0 mi WSW 6.9 mph - N/A Fog Fog
10:55 PM 39.2 °F 33.0 °F 39.2 °F 100% 30.36 in 0.0 mi WSW 9.2 mph - N/A Fog Fog
11:55 PM 39.2 °F 33.0 °F 37.4 °F 93% 30.36 in 0.0 mi WSW 9.2 mph - N/A Fog Fog